Theta_e
337 336 334 332 332 332 332 336 336 335 332 327 326 326 325 327 336 338 335 330 333 324 328 328 327 325 326 330 329 330 326 323 326
338 338 338 337 333 333 334 333 333 336 336 334 330 326 326 326 337 337 335 333 328 326 326 325 326 326 325 328 327 328 326 329 327
335 335 335 335 336 334 335 335 336 337 336 337 336 332 327 329 335 337 336 334 330 329 328 327 324 324 323 328 324 324 323 323 324
330 332 333 333 333 333 333 337 336 335 336 336 337 337 333 330 334 335 335 333 330 330 330 330 327 325 323 322 322 323 322 322 326
315 319 322 325 327 327 327 329 331 333 335 335 334 337 338 335 336 335 334 333 329 330 330 330 330 328 326 325 323 323 322 322 328
303 304 305 307 309 312 315 317 320 324 328 330 334 335 335 338 334 336 335 331 328 330 331 331 332 330 328 327 326 325 322 322 326
302 302 302 302 302 302 303 303 304 307 312 318 325 331 336 336 337 335 334 333 329 329 330 331 332 331 330 330 331 327 323 322 325
302 302 302 302 302 302 303 303 303 303 303 304 309 318 323 332 336 336 335 334 332 330 329 330 332 332 332 331 331 332 325 323 322
303 302 301 301 301 301 301 302 302 302 302 303 304 307 317 327 328 335 336 335 334 332 331 329 331 333 332 332 334 333 329 325 323
304 304 304 304 302 301 301 301 301 302 303 302 302 306 312 314 321 323 331 333 334 331 333 332 330 335 332 332 332 333 333 328 325
304 304 304 304 304 304 302 303 302 302 303 303 304 305 305 307 311 316 322 329 333 335 334 333 332 334 335 332 332 332 332 332 328
304 304 304 303 303 303 303 302 302 302 302 303 303 303 304 306 308 308 315 323 326 333 335 334 333 331 332 335 331 332 333 333 332
303 303 303 303 303 303 303 303 304 303 302 302 302 302 302 304 305 308 309 317 324 327 332 334 334 334 332 331 331 331 332 333 333
300 302 303 302 302 302 303 303 303 303 303 302 302 301 302 302 303 305 307 306 308 318 326 331 333 334 332 332 332 331 332 332 333
299 299 299 300 300 301 302 302 303 303 303 303 302 302 302 303 303 305 306 309 308 310 317 325 330 333 332 332 332 333 332 333 332
300 299 299 299 300 301 301 300 301 301 301 301 302 301 301 301 302 304 305 305 308 312 317 321 325 329 331 331 332 332 332 333 334
299 299 299 300 299 299 300 300 300 300 299 300 301 301 301 301 302 307 309 310 309 310 313 318 323 324 329 331 332 332 332 333 335
299 299 299 299 299 299 299 299 299 299 299 299 300 302 301 301 301 302 302 307 313 316 317 319 320 318 327 330 332 332 331 332 335
298 298 298 298 299 299 299 299 298 299 299 300 301 302 302 302 301 301 302 303 305 313 316 319 322 322 323 329 332 332 333 331 332
296 297 297 297 297 298 298 298 298 298 299 300 300 301 302 302 301 301 301 302 303 306 309 314 319 322 323 329 333 332 333 331 330
Wind_Speed
8 9 10 11 12 13 12 13 13 12 12 12 13 12 11 10 6 9 9 6 10 7 5 7 6 6 4 3 2 3 4 1 1
7 7 5 8 11 12 13 15 16 16 15 15 15 15 14 12 10 11 10 9 8 7 7 7 8 7 5 7 8 8 5 3 4
10 12 11 12 12 14 13 13 15 18 18 18 18 17 16 15 13 13 13 14 11 10 9 8 9 8 8 10 7 8 7 5 4
10 11 12 12 14 14 15 14 16 17 16 18 20 20 19 17 15 15 15 17 15 14 12 10 9 10 9 9 8 8 6 4 4
10 11 12 13 13 15 16 16 16 18 20 20 20 21 22 22 18 19 18 23 18 18 16 15 12 12 12 10 9 9 7 6 7
12 12 12 12 12 13 13 14 15 15 17 16 17 21 22 24 23 21 21 26 22 22 21 19 18 15 14 14 13 13 10 9 10
14 14 14 14 15 15 16 16 16 16 16 15 15 14 16 21 26 28 25 28 25 26 25 23 22 20 18 17 17 15 13 12 13
18 18 18 17 17 17 18 18 20 20 19 18 16 16 19 20 21 27 31 32 28 28 29 27 26 25 23 20 18 19 16 15 15
16 17 19 20 19 19 19 20 20 20 21 20 19 18 16 15 24 24 26 28 32 31 32 31 30 30 27 25 22 21 20 18 17
14 14 14 14 17 18 18 18 20 21 20 21 22 21 19 18 18 24 24 25 22 33 36 33 31 32 31 29 27 25 24 21 20
16 16 17 16 16 14 15 16 17 19 19 19 17 21 23 24 23 21 23 24 27 31 38 36 33 33 34 33 31 29 28 26 23
20 20 19 19 17 17 15 13 14 15 16 17 19 19 21 22 24 27 23 23 28 30 33 39 38 37 37 36 34 34 32 31 27
22 21 21 20 20 19 17 14 14 14 16 17 17 19 20 23 25 26 27 23 24 29 34 37 38 43 40 39 38 37 37 35 33
21 23 24 22 22 22 20 17 16 17 17 18 18 19 21 24 25 27 28 32 32 31 32 35 39 40 46 44 42 40 40 38 36
24 23 24 24 24 23 21 19 18 19 20 20 19 20 21 22 25 27 28 29 31 34 34 33 40 42 42 46 45 44 43 42 39
26 26 25 24 23 22 21 20 20 21 19 21 22 21 23 25 23 23 26 29 30 30 31 33 36 42 42 45 48 48 45 44 43
29 28 28 27 26 25 23 21 23 23 19 20 22 26 25 23 18 16 20 24 28 31 31 32 35 37 41 42 45 48 48 44 45
28 28 28 29 27 26 24 23 23 26 23 21 22 19 23 22 22 21 21 24 25 26 27 31 33 37 38 40 42 45 47 48 45
29 29 29 30 30 29 28 26 25 24 25 22 22 23 25 27 30 24 23 23 25 27 23 29 28 32 37 41 41 42 44 46 42
29 30 31 32 33 33 31 29 27 25 25 23 22 22 23 24 27 30 26 22 21 24 23 27 33 32 35 38 41 42 44 44 46
Wind_Direction
276 272 273 275 272 268 268 265 266 267 268 267 264 261 256 256 264 234 244 248 233 222 224 236 233 255 253 230 257 255 271 291 313
287 282 288 275 269 273 274 269 264 259 261 263 263 262 260 254 244 234 234 245 244 239 238 240 239 254 263 225 234 245 258 209 266
292 293 287 291 270 262 268 269 268 264 263 259 257 260 260 256 244 245 243 242 249 246 245 244 240 247 243 241 242 230 263 248 254
281 277 276 273 280 279 276 270 264 257 262 261 259 255 256 253 247 249 248 252 249 249 250 247 245 247 246 243 236 249 258 250 254
293 288 284 284 283 285 285 280 281 282 272 263 260 255 252 248 242 247 244 249 249 248 248 248 242 246 246 244 249 242 256 242 235
306 303 301 300 298 295 293 292 291 287 282 283 271 260 255 249 245 238 251 251 250 248 247 246 243 245 245 241 243 241 247 243 239
306 299 296 298 301 303 302 299 297 294 291 293 282 274 264 258 250 251 243 257 254 252 250 247 246 244 244 241 236 240 244 241 236
309 306 301 294 292 296 296 297 298 296 293 293 292 288 274 262 258 256 254 254 258 256 253 251 247 245 243 242 238 239 243 243 237
305 299 296 297 297 300 300 299 295 292 292 290 287 287 285 283 264 257 258 262 259 251 255 252 247 245 244 243 238 237 241 240 239
301 301 303 300 297 296 299 297 293 294 292 287 284 283 282 280 277 272 262 256 256 251 246 247 247 246 247 244 240 238 239 241 238
291 290 291 294 296 297 295 299 301 294 291 287 288 285 279 276 274 274 272 256 252 252 246 245 244 243 245 247 243 240 237 240 238
281 282 285 284 283 289 290 291 295 297 296 292 288 286 285 279 275 269 270 269 256 252 248 248 246 241 243 242 245 243 241 238 238
275 275 276 278 277 279 278 282 288 290 293 294 291 291 285 281 277 272 264 263 262 258 250 249 248 244 242 244 243 243 242 240 238
280 271 272 271 271 272 274 273 275 281 284 286 290 289 287 284 280 274 268 259 257 255 255 249 248 247 242 243 245 243 242 241 240
282 280 275 270 269 269 269 270 272 274 279 284 284 286 288 284 279 275 272 267 260 256 253 254 249 246 245 243 243 243 241 239 240
276 278 277 270 266 265 266 270 274 275 279 283 284 285 284 286 283 278 273 268 262 257 255 253 255 248 248 246 243 242 240 239 237
275 273 273 270 267 267 268 271 274 274 276 278 284 286 288 282 283 275 271 271 263 258 254 252 249 253 247 249 244 241 240 236 239
273 272 269 266 263 262 265 268 268 271 274 270 270 280 279 291 279 285 277 277 268 255 250 254 254 253 248 246 248 244 242 239 236
270 266 264 264 261 260 261 265 266 260 261 263 260 261 271 280 288 280 278 276 275 261 262 254 253 254 252 244 245 247 243 236 239
269 263 262 261 258 257 258 260 258 253 254 253 256 256 261 268 272 283 282 276 273 276 276 260 254 244 250 250 244 247 245 236 239